This is the latest recevied weather packets stored in our database for station/object SP6PGH-13. If no packets are shown the sender has not sent any weather packets the latest 1 day(s).
| Time | Temp. | Humidity | Pressure | Rain* | Wind** | Luminosity | Snow |
|---|---|---|---|---|---|---|---|
| 1778041696 | 11.67° C | 84% | 990.8 hPa | - | - | 52 W/m² | - |
| 1778040795 | 10.56° C | 87% | 990.8 hPa | - | - | 34 W/m² | - |
| 1778039894 | 10.56° C | 88% | 990.6 hPa | - | - | 25 W/m² | - |
| 1778038993 | 10.56° C | 86% | 990.2 hPa | - | - | 11 W/m² | - |
| 1778038092 | 9.44° C | 90% | 990.1 hPa | - | - | 6 W/m² | - |
| 1778036367 | 9.44° C | 88% | 990.4 hPa | - | - | - | - |
| 1778035466 | 10° C | 87% | 990.6 hPa | - | - | - | - |
| 1778034565 | 10° C | 87% | 990.8 hPa | - | - | - | - |
| 1778033664 | 10° C | 85% | 990.7 hPa | - | - | - | - |
| 1778032763 | 9.44° C | 87% | 990.9 hPa | - | - | - | - |
| 1778031862 | 10° C | 85% | 990.8 hPa | - | - | - | - |
| 1778030960 | 10.56° C | 83% | 990.8 hPa | - | - | - | - |
| 1778030059 | 10.56° C | 84% | 990.7 hPa | - | - | - | - |
| 1778029159 | 10° C | 85% | 990.9 hPa | - | - | - | - |
| 1778028257 | 10.56° C | 83% | 990.9 hPa | - | - | - | - |
| 1778027356 | 10° C | 83% | 990.6 hPa | - | - | - | - |
| 1778023752 | 12.22° C | 75% | 990.7 hPa | - | - | - | - |
| 1778021950 | 13.33° C | 72% | 990.9 hPa | - | - | - | - |
| 1778021049 | 13.33° C | 72% | 991.1 hPa | - | - | - | - |
| 1778003929 | 21.11° C | 63% | 991.1 hPa | - | - | 6 W/m² | - |
| 1778003028 | 21.67° C | 62% | 990.9 hPa | - | - | 16 W/m² | - |
| 1778001226 | 22.78° C | 58% | 990.8 hPa | - | - | 35 W/m² | - |
* Rain since midnight (hover to see other rain measurements)
** Current wind speed in m/s (hover to see current wind gust speed)